N2IVN4 Weather Reports


Display with metric or nautical units.
time (UTC)temp
F
wind
direction
speed
MPH
gust
MPH
rain 1hr
in
rain 24hr
in
rain mn
in
humidity
%
barometer
mb
20260831015507 80 135 0.0 0.0 0.00 0.02 0.02 85 1017.2
20260831014507 80 135 0.0 0.0 0.00 0.02 0.02 85 1017.2
20260831013507 80 112 0.0 0.0 0.00 0.02 0.02 85 1016.9
20260831013007 81 112 0.0 0.0 0.00 0.02 0.02 84 1016.9
20260831012007 81 112 0.0 0.0 0.00 0.02 0.02 83 1016.9
20260831011507 81 112 0.0 0.0 0.00 0.02 0.02 83 1016.9
20260831011008 81 112 1.0 1.0 0.00 0.02 0.02 83 1016.9
20260831010508 82 68 0.0 0.0 0.00 0.02 0.02 84 1016.9
20260831010007 82 68 0.0 0.0 0.00 0.02 0.02 84 1016.5
20260831005507 82 68 0.0 0.0 0.00 0.02 0.02 84 1016.8
20260831005007 82 68 2.0 3.0 0.00 0.02 0.02 83 1016.9
20260831004507 82 68 3.0 3.0 0.00 0.02 0.02 83 1016.9
20260831003508 82 68 1.0 1.0 0.00 0.02 0.02 82 1016.9
20260831003008 82 68 1.0 3.0 0.00 0.02 0.02 82 1016.9
20260831002507 82 90 3.0 3.0 0.00 0.02 0.02 81 1016.9
20260831001507 82 68 3.0 3.0 0.00 0.02 0.02 81 1016.9
20260831001007 82 45 3.0 3.0 0.00 0.02 0.02 80 1016.9
20260831000508 83 45 3.0 3.0 0.00 0.02 0.02 80 1016.9
20260831000008 83 74 5.0 5.0 0.00 0.02 0.02 80 1016.5
20260830235507 83 68 2.0 3.0 0.00 0.02 0.02 79 1016.5
20260830235007 83 90 0.0 0.0 0.00 0.02 0.02 79 1016.5
20260830233508 83 111 2.0 2.0 0.00 0.02 0.02 77 1016.2
20260830233007 83 135 2.0 2.0 0.00 0.02 0.02 77 1016.2
20260830232507 83 68 1.0 1.0 0.00 0.02 0.02 77 1016.2
20260830232008 83 90 2.0 3.0 0.00 0.02 0.02 77 1016.2
20260830231507 83 68 3.0 3.0 0.00 0.02 0.02 77 1016.2
20260830231007 83 68 2.0 3.0 0.00 0.02 0.02 77 1015.9
20260830230006 84 70 2.0 2.0 0.00 0.02 0.02 77 1015.9
20260830225507 84 112 0.0 1.0 0.00 0.02 0.02 77 1015.9
20260830225007 84 112 1.0 1.0 0.00 0.02 0.02 76 1015.9
20260830224507 84 112 1.0 1.0 0.00 0.02 0.02 76 1015.7
20260830224008 85 112 1.0 1.0 0.00 0.02 0.02 76 1015.9
20260830222507 85 68 0.0 0.0 0.00 0.02 0.02 75 1016.2
20260830221507 85 90 0.0 0.0 0.00 0.02 0.02 74 1016.2
20260830220507 87 90 2.0 2.0 0.00 0.02 0.02 73 1016.2
20260830215007 87 68 4.0 5.0 0.00 0.05 0.02 72 1016.2
20260830214507 87 68 2.0 5.0 0.00 0.05 0.02 72 1016.2
20260830214008 87 68 2.0 2.0 0.00 0.05 0.02 72 1016.2
20260830213507 87 68 2.0 5.0 0.00 0.07 0.02 71 1016.2
20260830212507 88 112 2.0 2.0 0.00 0.07 0.02 70 1016.2
20260830211507 89 112 2.0 2.0 0.00 0.07 0.02 69 1016.2
20260830211007 89 68 2.0 2.0 0.00 0.07 0.02 69 1016.2
20260830210507 90 112 0.0 5.0 0.00 0.07 0.02 68 1016.2
20260830210007 90 68 1.0 5.0 0.00 0.07 0.02 67 1016.2
20260830205506 91 68 2.0 2.0 0.00 0.07 0.02 67 1015.9
20260830204507 92 92 2.0 3.0 0.00 0.07 0.02 66 1015.9
20260830204007 92 90 1.0 1.0 0.00 0.07 0.02 66 1015.9
20260830203507 92 68 1.0 1.0 0.00 0.07 0.02 66 1016.0
20260830203007 92 68 1.0 1.0 0.00 0.07 0.02 66 1016.2
20260830202506 92 45 0.0 2.0 0.00 0.07 0.02 67 1016.1
20260830202007 92 112 3.0 3.0 0.00 0.07 0.02 67 1015.9
20260830201507 92 90 3.0 3.0 0.00 0.07 0.02 68 1015.9
20260830201007 92 68 2.0 2.0 0.00 0.07 0.02 68 1015.9
20260830200007 92 68 2.0 2.0 0.00 0.07 0.02 68 1016.2
20260830194007 92 338 2.0 2.0 0.00 0.07 0.02 70 1016.2
20260830193507 91 338 5.0 6.0 0.00 0.07 0.02 70 1016.5
20260830193006 91 45 6.0 6.0 0.00 0.07 0.02 71 1016.5
20260830192507 91 45 6.0 6.0 0.00 0.07 0.02 70 1016.9
20260830192006 91 0 3.0 3.0 0.00 0.07 0.02 70 1016.6
20260830191507 91 0 3.0 3.0 0.00 0.07 0.02 69 1016.9
20260830191007 91 0 3.0 3.0 0.00 0.07 0.02 69 1016.9
20260830190507 90 68 3.0 3.0 0.00 0.07 0.02 71 1016.9
20260830190006 90 88 0.0 3.0 0.00 0.07 0.02 71 1016.9
20260830185007 88 90 0.0 0.0 0.00 0.07 0.02 73 1017.0
20260830184507 87 90 0.0 0.0 0.00 0.07 0.02 75 1016.9
20260830184006 86 90 1.0 2.0 0.00 0.07 0.02 75 1016.9
20260830183508 86 68 0.0 0.0 0.00 0.07 0.02 75 1017.2
20260830183006 86 68 0.0 5.0 0.00 0.07 0.02 76 1017.2
20260830182507 86 315 5.0 5.0 0.00 0.07 0.02 76 1017.2
20260830182006 85 315 3.0 5.0 0.00 0.07 0.02 77 1017.2
20260830181507 84 315 2.0 2.0 0.00 0.07 0.02 78 1017.2
20260830181007 84 315 2.0 2.0 0.00 0.07 0.02 79 1017.6
20260830180506 83 225 0.0 0.0 0.00 0.07 0.02 82 1017.6
20260830180006 82 225 0.0 0.0 0.00 0.07 0.02 83 1017.6
20260830175506 82 225 0.0 0.0 0.00 0.07 0.02 84 1017.6
20260830175006 81 225 0.0 0.0 0.00 0.07 0.02 84 1017.6
20260830174507 80 225 0.0 0.0 0.00 0.07 0.02 84 1017.6
20260830174006 80 225 0.0 0.0 0.00 0.07 0.02 84 1017.6
20260830173507 80 225 0.0 0.0 0.00 0.07 0.02 84 1017.6
20260830173006 80 225 0.0 0.0 0.00 0.07 0.02 85 1017.6
20260830172007 80 225 0.0 2.0 0.00 0.07 0.02 85 1017.6
20260830171506 79 225 2.0 3.0 0.00 0.07 0.02 85 1017.6
20260830171007 79 225 1.0 3.0 0.00 0.07 0.02 85 1017.6
20260830170507 79 68 0.0 0.0 0.00 0.07 0.02 87 1017.9
20260830170006 79 68 0.0 0.0 0.00 0.07 0.02 88 1017.9
20260830165506 79 68 0.0 0.0 0.02 0.07 0.02 88 1017.9
20260830165007 79 68 0.0 0.0 0.02 0.07 0.02 89 1018.2
20260830164507 78 68 0.0 0.0 0.02 0.07 0.02 89 1017.9
20260830164007 78 68 0.0 0.0 0.02 0.07 0.02 89 1018.0
20260830163506 78 68 0.0 0.0 0.02 0.07 0.02 89 1017.9
20260830163007 78 181 0.0 0.0 0.02 0.07 0.02 89 1017.9
20260830162507 78 181 0.0 0.0 0.02 0.07 0.02 89 1017.9
20260830162006 78 181 0.0 0.0 0.02 0.07 0.02 90 1017.9
20260830161507 78 181 0.0 0.0 0.02 0.07 0.02 90 1018.2
20260830161007 78 181 0.0 0.0 0.02 0.07 0.02 90 1018.6
20260830160506 78 180 0.0 0.0 0.02 0.07 0.02 90 1018.6
20260830160006 77 180 0.0 0.0 0.02 0.07 0.02 90 1018.6
20260830155506 77 180 0.0 0.0 0.00 0.05 0.00 91 1018.2
20260830155007 77 180 0.0 0.0 0.00 0.05 0.00 91 1018.6
20260830154506 77 180 0.0 0.0 0.00 0.05 0.00 91 1018.6
20260830154007 77 180 0.0 0.0 0.00 0.05 0.00 90 1018.6
20260830153508 76 180 0.0 0.0 0.00 0.05 0.00 90 1018.6
20260830152507 76 180 0.0 0.0 0.00 0.05 0.00 90 1018.7
20260830152006 76 180 0.0 0.0 0.00 0.05 0.00 90 1018.9
20260830151506 76 180 0.0 1.0 0.00 0.05 0.00 88 1018.9
20260830151006 76 158 1.0 1.0 0.00 0.05 0.00 88 1018.9
20260830145507 77 158 1.0 1.0 0.00 0.05 0.00 89 1019.3
20260830145007 78 180 0.0 0.0 0.00 0.05 0.00 88 1018.6
20260830144507 78 180 0.0 0.0 0.00 0.05 0.00 88 1018.2
20260830144006 78 180 0.0 0.0 0.00 0.05 0.00 88 1018.6
20260830143506 78 177 0.0 0.0 0.00 0.05 0.00 88 1018.6
20260830143007 78 135 0.0 0.0 0.00 0.05 0.00 89 1018.6
20260830142513 80 135 0.0 0.0 0.00 0.05 0.00 93 1017.2